Wind_Speed
27 28 29 30 31 32 33 34 35 35 37 38 38 39 40 40 40 40 40 40 40 40 41 42 42 41 41 41 43 44 44 44 44 44 44 44 45 46 47 47 47 46 45 45
28 29 29 31 31 32 33 35 36 37 37 38 39 39 40 40 41 41 41 41 41 42 42 42 43 42 42 42 43 44 44 44 45 45 45 46 46 47 47 48 49 49 48 47
29 30 30 31 32 33 33 35 36 37 38 38 39 39 39 39 40 40 41 42 42 42 43 43 43 43 43 43 44 45 46 45 46 47 47 47 47 47 48 49 49 50 50 49
29 30 30 31 32 33 34 35 36 37 38 38 39 40 38 38 39 39 40 41 42 42 43 44 44 45 45 44 45 46 46 46 46 48 49 49 49 49 50 50 50 50 51 51
30 30 31 32 33 34 35 35 36 37 38 39 38 40 38 38 37 38 39 40 41 42 42 43 44 45 46 46 45 46 47 47 47 48 49 49 50 51 51 52 53 53 52 52
32 32 32 33 34 35 35 35 36 37 37 38 37 38 38 36 36 36 38 38 39 40 41 42 43 44 45 46 46 46 47 47 47 47 48 49 51 53 53 54 54 53 54 54
33 34 34 34 34 34 34 34 35 37 37 38 36 38 37 35 35 35 36 36 37 38 39 40 41 42 44 44 45 45 46 47 47 48 48 49 49 52 53 54 54 55 54 55
35 35 35 35 34 34 33 33 33 36 37 37 36 37 36 35 35 35 35 35 36 37 38 39 40 41 42 43 44 45 46 47 48 48 49 49 50 51 52 53 54 55 55 55
35 36 35 35 34 33 33 32 33 34 36 37 36 36 34 34 34 35 34 34 34 35 37 38 40 40 41 42 43 44 45 47 48 49 49 50 51 51 52 54 54 53 54 55
35 36 35 35 34 33 33 32 32 32 34 35 35 35 34 33 34 35 35 34 35 35 37 38 39 41 41 41 42 43 45 46 48 49 49 50 50 52 52 53 54 53 54 55
36 37 36 35 34 33 33 32 32 32 33 35 36 35 34 34 34 35 36 36 36 36 38 39 39 39 40 41 42 43 44 45 46 48 49 49 50 51 52 53 54 54 55 55
36 37 36 35 34 33 33 32 32 33 35 36 37 36 34 34 35 36 37 38 39 39 39 39 39 39 40 41 42 43 44 45 46 47 48 49 50 51 52 53 54 55 55 54
36 36 36 36 35 33 33 33 33 34 36 36 37 37 35 35 35 36 37 38 39 39 39 39 39 39 40 41 43 44 44 45 45 46 47 48 49 51 52 53 54 55 55 54
37 37 36 36 35 34 34 33 34 35 37 38 38 37 35 35 36 36 37 37 37 37 38 39 40 41 41 42 42 43 44 45 45 46 46 47 48 50 51 52 53 54 55 55
38 38 37 36 35 35 35 35 35 36 38 40 38 38 35 36 36 36 36 36 36 36 37 38 40 40 40 40 41 42 43 44 45 46 46 47 48 49 50 51 53 54 55 55
39 39 39 37 36 36 37 36 36 37 38 38 38 37 36 36 36 36 36 37 37 38 38 39 39 39 39 40 40 41 42 44 45 45 46 46 47 48 49 50 52 54 54 54
39 39 39 38 36 37 37 35 36 36 36 37 37 36 35 35 35 36 36 37 38 39 39 39 38 39 39 39 40 40 41 42 43 44 45 46 46 46 46 48 50 52 53 54
38 38 38 38 38 38 38 36 35 35 35 35 36 35 35 35 35 35 36 37 37 37 37 37 37 37 38 38 39 40 40 41 43 44 44 45 45 46 46 46 47 49 51 52
38 37 38 39 39 39 36 35 34 34 34 34 35 35 35 35 35 34 35 35 35 35 36 36 36 36 37 38 39 39 39 40 41 42 43 44 45 46 47 47 47 48 49 50
38 37 37 37 38 38 36 34 34 35 34 33 33 33 34 34 34 34 34 34 34 34 34 35 35 35 36 37 38 38 39 40 40 41 43 44 45 46 46 47 47 47 48 48
36 36 36 37 38 38 36 35 35 35 35 33 33 33 33 34 34 34 33 34 34 34 33 33 33 34 34 35 36 37 38 39 39 40 42 43 45 45 46 46 47 47 47 47
37 37 37 37 38 38 36 36 35 35 34 34 34 34 34 34 35 35 34 34 34 33 33 33 33 32 32 33 33 34 35 36 38 39 40 41 42 43 44 45 46 46 47 47
37 37 37 37 37 37 36 36 35 35 35 35 35 35 35 35 35 35 34 34 33 32 32 32 32 32 32 33 33 34 34 35 35 37 38 39 39 40 41 42 43 44 45 46
36 36 36 36 36 36 36 36 35 35 35 35 35 34 34 34 34 34 33 33 32 31 31 32 32 32 32 33 34 34 34 35 35 35 36 37 37 38 40 41 42 43 43 44
35 35 35 35 35 34 34 34 34 34 34 34 34 34 34 34 34 34 33 33 32 32 32 32 32 32 32 33 34 34 34 35 35 35 35 36 37 37 38 38 39 40 41 42
34 34 35 35 34 34 34 34 34 34 34 34 34 34 33 33 32 31 30 30 30 30 30 30 30 31 31 31 31 31 32 33 34 34 35 35 36 37 37 37 38 38 39 40
Wind_Direction
291 289 287 286 285 283 281 278 277 276 274 272 270 269 269 267 265 264 264 263 261 259 258 257 257 256 255 254 252 250 249 249 249 247 245 245 245 245 245 245 245 245 244 245
292 291 291 290 287 285 283 279 277 276 277 275 273 271 269 267 266 265 264 263 261 259 258 256 256 256 255 254 253 251 250 249 248 247 246 245 246 245 246 245 245 245 246 247
295 295 294 292 290 288 286 284 281 279 279 278 276 273 270 268 267 266 265 263 261 260 258 256 255 255 255 255 254 252 251 249 248 247 246 247 247 247 246 245 245 245 246 247
300 299 297 295 293 291 289 287 285 282 280 279 278 276 272 270 268 267 266 263 261 260 258 257 256 255 254 254 254 252 251 250 248 248 247 247 248 248 247 246 245 245 246 247
305 303 301 298 296 294 292 290 287 284 281 280 279 278 275 272 270 268 267 265 263 262 259 258 257 256 254 254 253 252 251 249 249 248 248 248 247 247 247 247 246 246 247 248
304 305 304 302 300 297 294 291 287 284 282 281 280 279 277 274 272 270 269 267 265 264 261 260 258 256 255 253 253 252 251 249 248 248 248 248 248 248 247 247 246 247 247 248
303 304 304 304 302 298 295 292 289 286 283 282 281 279 278 276 274 272 270 269 267 265 263 261 259 257 255 253 253 252 251 250 248 248 248 249 249 249 249 248 248 248 248 249
305 304 305 305 303 301 298 294 291 289 288 286 283 282 281 279 276 275 272 270 268 266 264 261 260 258 256 254 253 252 251 250 248 248 248 248 249 250 250 249 248 249 249 249
305 305 305 305 303 301 299 296 293 289 288 287 285 284 282 282 281 278 276 273 271 269 266 264 262 261 259 256 254 253 252 251 250 249 249 249 250 251 251 249 249 249 250 250
305 304 305 304 301 300 299 297 295 291 289 289 287 285 286 287 285 283 281 277 273 271 270 267 265 263 260 259 256 254 253 253 252 251 251 251 251 252 251 250 250 250 251 251
303 303 304 302 301 300 298 295 293 291 289 288 288 286 286 287 286 285 283 279 275 272 271 269 266 264 261 259 257 256 255 254 253 253 252 252 253 253 251 251 250 250 251 252
302 302 301 301 300 298 296 294 292 289 289 288 287 287 287 286 286 285 284 280 276 274 273 271 267 264 262 260 258 257 256 255 255 255 254 253 253 253 252 252 251 251 252 253
302 302 301 300 299 298 295 294 291 289 288 288 287 289 289 287 285 284 284 282 279 276 274 271 269 267 264 261 259 258 257 257 256 255 255 254 254 253 253 253 252 252 252 252
301 299 299 298 299 298 296 293 291 289 289 289 288 288 289 286 284 284 284 283 280 277 275 272 270 269 268 265 262 259 258 258 258 257 256 255 255 255 254 253 253 252 252 252
301 300 299 295 294 294 293 293 292 291 291 290 291 289 289 286 284 284 283 282 280 278 276 274 271 270 268 267 265 262 259 258 258 258 257 256 256 257 256 254 253 251 251 252
299 299 298 294 292 291 291 293 294 293 293 292 291 290 290 287 285 284 283 282 280 279 278 276 273 270 268 267 266 264 261 259 258 258 258 258 258 258 257 256 253 251 251 252
297 297 295 293 292 291 292 296 296 295 294 293 292 293 291 289 286 284 283 283 282 280 279 277 275 271 268 265 264 264 263 261 260 260 260 259 259 259 258 257 255 253 252 252
296 295 293 292 292 290 295 295 296 295 294 293 292 292 292 291 288 286 285 284 283 281 280 279 277 273 270 266 265 264 263 262 261 261 261 261 260 260 259 257 255 254 253 253
294 293 292 292 291 291 293 296 296 295 294 294 293 292 292 291 289 288 287 285 284 282 281 279 278 275 272 269 267 265 264 264 263 262 261 261 261 261 260 259 257 256 255 255
293 291 290 290 290 291 295 296 296 296 295 295 294 293 293 293 291 289 289 287 284 283 282 281 279 277 274 271 269 267 267 266 265 263 262 262 262 262 261 260 259 258 256 255
292 290 288 288 289 291 294 294 294 294 296 294 293 293 292 292 291 290 289 288 286 284 283 281 280 278 275 273 271 269 269 268 267 266 265 264 263 262 261 261 260 259 257 255
291 290 289 288 289 292 293 293 292 293 294 294 294 293 292 290 290 290 289 288 287 285 283 282 280 278 275 274 274 273 271 270 268 267 266 265 264 262 261 261 261 259 258 256
290 290 290 288 289 291 291 291 292 292 293 293 294 293 292 291 291 290 289 287 286 285 283 282 280 278 277 276 275 274 273 271 270 268 267 266 265 263 262 262 261 259 258 257
290 289 289 288 289 290 290 290 291 291 291 292 293 292 292 291 291 291 290 289 287 285 284 283 282 280 279 278 277 275 274 273 272 271 269 268 266 265 265 265 263 260 258 257
291 290 289 289 291 291 291 290 289 289 290 290 291 291 292 292 292 292 290 288 287 286 285 284 283 281 280 279 278 276 274 273 272 271 271 269 268 268 267 266 264 261 258 257
290 289 289 289 290 290 291 290 289 289 289 289 289 291 292 293 293 293 292 290 288 287 285 284 283 282 281 280 279 277 275 275 274 273 272 271 269 268 267 266 263 261 260 259
Height
5700 5698 5695 5693 5691 5688 5686 5684 5683 5681 5679 5678 5677 5678 5677 5677 5677 5677 5677 5676 5677 5677 5678 5679 5679 5680 5682 5683 5684 5687 5689 5692 5694 5697 5700 5703 5706 5709 5712 5715 5718 5721 5725 5728
5692 5690 5687 5684 5681 5679 5676 5674 5673 5671 5669 5667 5667 5667 5666 5666 5666 5665 5665 5665 5665 5665 5666 5668 5668 5669 5671 5672 5673 5675 5678 5680 5683 5686 5689 5692 5695 5698 5701 5704 5707 5710 5714 5717
5684 5682 5678 5675 5672 5669 5667 5665 5662 5660 5658 5656 5655 5656 5656 5655 5654 5653 5653 5652 5653 5654 5655 5656 5657 5658 5659 5660 5662 5664 5666 5669 5671 5674 5677 5680 5683 5686 5690 5693 5696 5699 5702 5706
5676 5673 5670 5666 5663 5660 5657 5655 5652 5649 5647 5646 5645 5644 5646 5644 5643 5642 5641 5641 5641 5641 5642 5643 5644 5646 5647 5648 5650 5651 5654 5657 5659 5662 5665 5669 5672 5675 5677 5681 5684 5688 5690 5693
5668 5665 5661 5658 5655 5651 5647 5644 5642 5639 5636 5635 5634 5632 5634 5633 5632 5631 5630 5629 5629 5629 5630 5630 5631 5633 5635 5636 5638 5639 5641 5644 5647 5650 5653 5656 5659 5662 5665 5668 5672 5675 5678 5681
5661 5657 5653 5649 5645 5641 5637 5635 5632 5629 5626 5625 5625 5622 5622 5622 5621 5620 5619 5618 5618 5617 5618 5618 5619 5620 5622 5623 5625 5627 5629 5631 5634 5637 5640 5643 5646 5649 5652 5655 5658 5662 5665 5668
5652 5649 5644 5640 5636 5632 5629 5626 5622 5618 5616 5615 5615 5611 5612 5611 5610 5609 5608 5607 5606 5606 5606 5606 5607 5608 5609 5611 5613 5614 5617 5619 5621 5624 5628 5630 5633 5636 5639 5642 5645 5648 5652 5655
5643 5640 5636 5631 5627 5623 5620 5617 5614 5610 5607 5605 5603 5601 5602 5601 5599 5598 5597 5597 5596 5595 5595 5595 5595 5596 5597 5599 5600 5602 5604 5606 5609 5611 5614 5617 5620 5622 5625 5628 5631 5634 5638 5641
5634 5631 5627 5622 5618 5615 5611 5608 5605 5601 5597 5595 5593 5592 5592 5591 5589 5587 5586 5585 5585 5584 5584 5584 5584 5585 5586 5587 5588 5590 5592 5594 5596 5598 5601 5603 5606 5608 5611 5614 5617 5620 5623 5626
5625 5621 5618 5614 5610 5606 5603 5599 5596 5592 5588 5584 5583 5583 5583 5581 5579 5578 5576 5575 5574 5573 5573 5572 5573 5573 5574 5575 5576 5577 5579 5581 5583 5585 5587 5589 5592 5594 5596 5599 5602 5605 5608 5611
5616 5612 5608 5604 5601 5598 5594 5591 5587 5583 5580 5577 5573 5576 5574 5572 5569 5567 5566 5564 5562 5562 5561 5561 5561 5561 5562 5562 5564 5565 5566 5568 5570 5571 5573 5575 5577 5580 5582 5585 5588 5591 5594 5596
5608 5603 5599 5596 5592 5589 5585 5582 5579 5576 5572 5568 5564 5567 5565 5562 5559 5557 5555 5552 5551 5550 5550 5549 5549 5549 5550 5550 5551 5552 5553 5555 5556 5558 5560 5562 5563 5565 5568 5570 5573 5576 5579 5582
5598 5594 5589 5586 5585 5581 5576 5573 5570 5567 5563 5559 5555 5557 5555 5552 5549 5546 5543 5541 5539 5539 5538 5538 5538 5538 5538 5538 5539 5540 5541 5542 5543 5544 5546 5548 5550 5552 5554 5556 5559 5561 5564 5567
5588 5584 5581 5578 5574 5570 5566 5564 5561 5557 5553 5549 5547 5546 5546 5542 5538 5535 5533 5530 5528 5527 5526 5526 5526 5526 5526 5526 5526 5527 5528 5529 5530 5531 5532 5534 5536 5538 5540 5542 5544 5546 5549 5551
5579 5575 5571 5567 5564 5561 5557 5554 5551 5547 5544 5540 5538 5535 5535 5531 5528 5525 5522 5520 5518 5516 5515 5514 5514 5513 5513 5513 5514 5514 5515 5516 5517 5518 5519 5520 5522 5523 5525 5527 5529 5531 5533 5536
5568 5564 5561 5557 5554 5550 5547 5545 5542 5538 5534 5530 5527 5525 5524 5520 5517 5514 5512 5509 5507 5506 5504 5503 5502 5501 5501 5501 5501 5501 5502 5502 5503 5504 5505 5507 5508 5509 5510 5512 5514 5516 5519 5521
5558 5554 5550 5546 5544 5540 5537 5537 5533 5528 5525 5521 5517 5516 5512 5509 5506 5504 5501 5499 5496 5495 5493 5491 5490 5489 5489 5488 5488 5489 5489 5489 5490 5491 5492 5493 5494 5495 5496 5497 5499 5501 5504 5506
5548 5543 5538 5535 5533 5528 5531 5527 5523 5518 5515 5511 5507 5504 5501 5498 5495 5493 5490 5488 5485 5483 5481 5480 5478 5477 5476 5476 5476 5476 5476 5477 5477 5478 5479 5479 5480 5481 5482 5483 5485 5487 5488 5491
5538 5533 5528 5525 5520 5518 5519 5516 5511 5507 5505 5502 5497 5494 5491 5488 5485 5483 5480 5477 5474 5472 5470 5468 5467 5465 5464 5464 5463 5463 5463 5463 5464 5465 5465 5466 5466 5467 5468 5470 5471 5472 5474 5476
5526 5522 5519 5514 5510 5507 5510 5506 5501 5498 5495 5493 5488 5484 5481 5477 5475 5474 5470 5467 5464 5462 5459 5457 5455 5454 5453 5452 5452 5451 5451 5451 5451 5451 5452 5453 5453 5454 5454 5456 5457 5458 5460 5461
5515 5511 5508 5504 5499 5497 5498 5495 5491 5488 5486 5482 5478 5474 5471 5468 5465 5463 5460 5457 5454 5452 5449 5447 5445 5443 5442 5441 5440 5440 5439 5439 5439 5439 5439 5439 5440 5440 5441 5442 5443 5444 5446 5448
5504 5501 5498 5494 5490 5490 5486 5483 5481 5478 5474 5471 5467 5464 5461 5458 5455 5452 5449 5446 5444 5441 5439 5437 5435 5433 5432 5430 5429 5429 5428 5427 5426 5426 5426 5427 5427 5427 5427 5428 5428 5429 5431 5433
5494 5491 5487 5484 5483 5479 5475 5472 5469 5467 5464 5460 5457 5454 5451 5448 5445 5442 5439 5436 5433 5431 5429 5427 5425 5423 5422 5420 5419 5418 5417 5416 5415 5414 5414 5414 5414 5414 5414 5414 5415 5416 5417 5420
5483 5480 5476 5473 5471 5468 5464 5461 5459 5456 5453 5450 5447 5444 5440 5437 5434 5431 5428 5426 5423 5421 5419 5417 5415 5413 5411 5410 5408 5407 5406 5405 5404 5403 5402 5402 5402 5401 5401 5401 5402 5402 5404 5406
5472 5468 5465 5462 5460 5457 5454 5451 5448 5445 5442 5439 5437 5434 5430 5427 5424 5421 5418 5415 5413 5411 5409 5407 5405 5403 5401 5399 5398 5396 5395 5394 5393 5392 5391 5390 5390 5389 5389 5389 5389 5390 5391 5393
5462 5458 5455 5452 5450 5447 5444 5441 5438 5435 5432 5429 5426 5423 5420 5417 5414 5411 5408 5405 5403 5401 5399 5396 5394 5393 5391 5389 5387 5386 5384 5383 5382 5380 5379 5378 5378 5377 5377 5377 5377 5377 5379 5380